Temp
23 23 23 22 22 22 22 22 22 21 21 21 21 21 21 21 21 21 20 20 20 21 21 21 22 22 22 21 21 21 21 20 21 21 21 21 21 20 20 20 19 19 19
24 24 23 23 22 22 22 23 23 22 22 21 21 21 21 21 22 21 21 21 20 21 21 22 23 22 22 22 21 22 21 21 21 21 21 21 20 20 20 20 19 19 19
24 24 24 23 23 23 23 23 23 23 23 22 21 21 21 21 22 21 21 21 21 22 22 22 23 22 22 22 22 22 22 21 20 20 21 21 20 20 20 20 19 19 19
25 25 25 24 24 23 24 24 24 24 23 23 22 22 21 21 21 21 21 22 22 22 22 22 22 22 22 22 22 22 21 22 21 20 20 20 20 20 19 19 19 19 19
26 26 26 25 25 25 25 25 25 24 24 24 23 23 22 21 21 21 21 22 22 22 22 22 22 23 23 23 22 22 21 21 21 20 20 20 20 20 20 20 19 19 18
27 27 27 26 26 25 25 25 26 25 25 25 24 24 24 23 23 22 22 22 22 22 22 23 23 23 22 22 22 22 22 21 21 20 20 20 20 20 20 19 19 18 18
27 27 27 26 26 26 26 25 25 26 26 25 25 25 24 24 24 24 23 22 22 22 22 23 23 23 23 23 23 23 22 22 21 20 20 20 20 20 20 19 19 19 19
27 27 27 27 27 26 26 25 25 25 25 25 25 25 25 25 25 24 23 23 22 23 23 23 23 23 23 23 22 22 22 21 21 20 20 21 20 20 20 19 19 18 19
27 27 28 28 27 27 26 26 26 25 25 25 25 25 25 25 25 24 23 22 22 23 23 23 23 22 22 21 21 21 21 20 20 20 20 20 19 19 19 17 17 17 17
29 29 28 28 27 27 27 26 27 26 26 25 25 25 25 25 24 24 23 23 23 23 23 23 23 22 21 20 19 19 19 19 19 20 20 19 19 19 18 18 17 15 15
27 27 28 27 27 27 27 26 26 26 25 25 25 25 25 24 24 24 23 22 23 22 23 23 22 22 21 20 19 19 19 19 19 19 19 19 18 18 18 19 17 15 14
26 26 27 27 27 27 27 26 26 25 25 25 24 24 24 24 23 23 23 22 22 21 21 21 21 21 20 19 19 19 19 19 18 19 18 19 19 18 19 19 18 16 15
26 27 27 27 28 27 27 26 25 25 24 24 24 24 24 23 23 23 22 21 21 20 20 21 20 20 20 19 19 19 19 19 18 18 18 18 19 18 17 16 15 14 14
26 26 27 27 28 27 26 26 26 25 24 24 23 23 23 23 22 21 21 21 21 20 20 21 20 20 20 19 19 19 19 19 18 18 18 18 17 17 16 15 14 14 14
24 24 25 25 26 26 25 26 25 25 24 24 23 23 22 22 22 21 21 21 21 21 21 20 20 20 20 19 19 19 19 18 18 18 17 17 16 16 15 14 14 14 14
21 22 22 23 24 24 24 24 25 25 24 23 22 22 21 21 21 21 21 21 21 21 20 21 21 20 20 19 19 18 18 18 17 17 16 15 16 16 15 15 14 13 13
21 21 21 21 22 22 22 23 23 24 23 22 21 21 20 21 21 21 21 21 21 21 21 21 21 20 20 20 18 18 18 18 16 16 14 14 15 14 14 14 14 13 13
21 20 20 21 21 21 21 22 22 22 22 22 21 21 21 21 21 21 21 21 21 21 21 20 20 20 19 18 18 18 17 16 16 15 15 15 15 15 14 13 14 13 13
21 20 20 21 21 21 21 21 22 22 22 21 21 21 21 21 21 21 20 20 20 20 20 19 19 19 19 18 17 16 16 15 15 15 14 14 14 14 13 14 13 13 13
20 20 19 20 21 20 21 21 21 21 21 21 21 21 20 20 19 19 19 19 19 19 19 18 18 18 17 17 16 16 15 15 14 13 13 13 13 13 13 14 13 13 13
19 18 18 20 20 21 21 21 21 21 20 21 21 20 18 18 18 17 18 18 18 18 18 18 17 17 16 16 16 15 15 15 14 13 13 12 13 13 13 12 13 13 13
18 17 18 19 21 21 22 21 21 20 19 19 18 18 17 16 16 16 16 16 17 17 16 15 15 15 16 16 16 16 15 15 14 14 13 13 14 14 14 14 13 13 12
17 17 18 18 19 20 19 18 18 17 17 16 16 16 16 15 15 15 15 15 15 14 14 14 14 15 15 15 15 14 14 14 14 13 14 13 14 14 14 13 13 13 12
16 16 17 17 16 17 18 16 16 16 15 15 15 14 13 13 13 13 13 13 13 14 14 14 14 14 14 14 14 14 14 14 14 15 15 14 14 14 14 14 13 13 13
16 16 15 17 16 15 15 15 15 14 15 14 14 14 14 13 13 13 13 13 13 13 13 13 14 13 13 13 13 13 13 13 13 13 14 14 13 14 13 13 14 13 13
15 15 14 15 15 15 14 14 14 14 14 14 14 13 14 14 14 14 14 13 13 13 13 13 13 13 13 13 13 13 13 13 13 13 13 13 13 13 13 14 14 14 14
Height
1504 1510 1515 1519 1524 1528 1532 1537 1542 1548 1551 1553 1556 1559 1562 1565 1568 1570 1571 1572 1572 1574 1575 1575 1575 1577 1578 1578 1580 1579 1578 1579 1578 1578 1579 1579 1577 1577 1579 1580 1580 1579 1579
1497 1503 1507 1513 1517 1521 1525 1529 1535 1540 1545 1548 1551 1554 1558 1561 1563 1565 1566 1567 1567 1568 1569 1569 1570 1573 1573 1574 1574 1573 1573 1574 1575 1574 1575 1575 1574 1574 1575 1575 1575 1574 1574
1490 1496 1501 1506 1510 1513 1518 1523 1527 1532 1536 1541 1545 1548 1551 1555 1557 1558 1560 1562 1562 1561 1563 1564 1565 1567 1567 1568 1569 1569 1570 1571 1572 1571 1570 1570 1569 1568 1567 1567 1568 1568 1569
1483 1488 1493 1498 1501 1506 1512 1516 1520 1524 1529 1533 1537 1541 1544 1548 1550 1552 1554 1555 1556 1557 1557 1558 1559 1559 1560 1562 1564 1564 1564 1564 1565 1564 1564 1564 1563 1562 1561 1561 1561 1562 1563
1475 1480 1484 1490 1496 1500 1504 1508 1513 1517 1520 1525 1529 1533 1536 1539 1541 1545 1547 1548 1549 1550 1551 1552 1552 1553 1553 1555 1556 1556 1558 1559 1558 1558 1556 1556 1553 1553 1552 1553 1553 1555 1553
1466 1470 1477 1483 1488 1492 1497 1500 1504 1508 1512 1516 1520 1524 1526 1528 1531 1535 1538 1540 1541 1541 1543 1544 1545 1546 1547 1547 1547 1548 1549 1549 1549 1549 1547 1544 1543 1543 1544 1545 1545 1546 1545
1459 1465 1471 1476 1480 1484 1489 1493 1496 1499 1504 1507 1511 1515 1517 1519 1522 1526 1529 1532 1532 1533 1534 1535 1536 1536 1538 1538 1539 1538 1539 1538 1539 1541 1537 1533 1533 1532 1536 1535 1535 1535 1535
1454 1460 1465 1469 1473 1478 1482 1485 1489 1493 1495 1499 1503 1506 1508 1510 1515 1519 1522 1524 1524 1524 1525 1525 1526 1527 1528 1529 1529 1527 1527 1527 1529 1530 1528 1525 1524 1525 1523 1523 1524 1527 1529
1449 1453 1458 1462 1466 1471 1474 1478 1483 1486 1489 1491 1494 1497 1499 1502 1506 1510 1515 1516 1514 1514 1515 1516 1517 1517 1518 1521 1520 1518 1516 1514 1518 1518 1517 1515 1515 1514 1513 1514 1511 1512 1510
1444 1446 1451 1455 1459 1463 1467 1471 1475 1478 1482 1485 1487 1489 1491 1494 1498 1501 1505 1507 1505 1506 1507 1507 1508 1508 1509 1510 1510 1511 1505 1506 1507 1504 1502 1502 1505 1504 1501 1500 1499 1497 1497
1442 1445 1448 1450 1454 1458 1460 1464 1468 1471 1474 1477 1479 1481 1483 1485 1488 1491 1495 1497 1497 1499 1497 1497 1499 1500 1501 1502 1502 1502 1499 1502 1498 1496 1491 1490 1490 1491 1490 1488 1486 1485 1485
1439 1442 1445 1447 1450 1454 1456 1459 1461 1464 1466 1468 1471 1472 1474 1477 1479 1482 1485 1487 1490 1490 1489 1490 1490 1491 1493 1494 1494 1494 1494 1493 1492 1490 1486 1483 1481 1479 1476 1475 1475 1475 1475
1437 1439 1441 1444 1446 1448 1451 1453 1455 1457 1458 1460 1462 1463 1465 1468 1470 1473 1475 1478 1481 1481 1481 1482 1483 1483 1485 1486 1487 1487 1486 1485 1483 1481 1479 1477 1473 1471 1468 1465 1460 1456 1453
1433 1436 1437 1438 1440 1442 1444 1446 1448 1449 1451 1453 1453 1454 1457 1460 1461 1464 1468 1470 1471 1473 1474 1475 1475 1477 1479 1479 1480 1480 1479 1478 1475 1473 1471 1470 1468 1465 1462 1460 1460 1462 1465
1428 1430 1430 1432 1434 1436 1438 1439 1440 1442 1443 1444 1446 1449 1451 1452 1454 1458 1460 1461 1463 1465 1468 1468 1468 1470 1472 1473 1473 1473 1472 1470 1468 1466 1464 1463 1460 1459 1458 1459 1461 1464 1468
1423 1424 1425 1426 1427 1428 1431 1433 1434 1435 1436 1438 1441 1443 1445 1447 1449 1451 1453 1455 1458 1460 1461 1461 1462 1464 1465 1466 1466 1466 1465 1463 1461 1459 1457 1456 1456 1453 1456 1457 1459 1459 1464
1420 1421 1421 1421 1421 1422 1423 1425 1427 1429 1431 1433 1436 1438 1439 1442 1443 1446 1448 1450 1452 1453 1453 1455 1457 1459 1459 1460 1460 1459 1458 1456 1455 1454 1454 1456 1455 1456 1455 1455 1458 1463 1467
1412 1412 1412 1413 1415 1415 1416 1418 1420 1423 1425 1427 1429 1432 1434 1437 1438 1440 1442 1444 1445 1446 1449 1450 1452 1453 1454 1454 1453 1453 1452 1452 1453 1453 1454 1455 1456 1455 1456 1458 1460 1465 1470
1406 1405 1405 1405 1407 1408 1410 1411 1414 1417 1419 1422 1424 1426 1429 1431 1433 1435 1437 1439 1441 1443 1444 1445 1446 1447 1448 1448 1448 1449 1448 1449 1450 1449 1452 1453 1455 1456 1457 1459 1463 1465 1468
1401 1400 1399 1399 1400 1402 1402 1404 1408 1411 1414 1417 1419 1422 1424 1426 1428 1430 1432 1434 1436 1438 1439 1441 1441 1442 1443 1444 1445 1446 1447 1447 1446 1447 1448 1450 1453 1455 1457 1459 1462 1465 1470
1396 1395 1394 1393 1394 1395 1397 1399 1402 1406 1409 1412 1416 1419 1421 1423 1423 1425 1428 1429 1431 1434 1434 1436 1438 1439 1439 1440 1441 1442 1444 1445 1447 1449 1449 1449 1452 1455 1457 1459 1463 1466 1470
1391 1392 1390 1389 1389 1390 1391 1394 1397 1401 1405 1407 1411 1415 1418 1420 1421 1422 1424 1426 1428 1430 1431 1433 1434 1435 1437 1438 1440 1441 1441 1443 1445 1447 1449 1450 1450 1453 1457 1459 1461 1465 1469
1385 1388 1386 1385 1384 1384 1388 1390 1394 1400 1403 1406 1410 1412 1416 1418 1420 1421 1422 1423 1425 1427 1429 1431 1432 1434 1435 1436 1437 1439 1440 1439 1440 1442 1445 1447 1449 1452 1455 1459 1462 1464 1468
1378 1381 1381 1382 1382 1379 1380 1390 1394 1396 1401 1403 1407 1412 1416 1418 1419 1420 1422 1424 1425 1427 1429 1430 1430 1431 1433 1434 1436 1437 1438 1440 1439 1439 1441 1444 1447 1451 1453 1457 1461 1464 1466
1371 1373 1374 1375 1382 1381 1380 1386 1393 1396 1399 1402 1406 1411 1414 1417 1418 1420 1420 1422 1423 1424 1426 1427 1429 1432 1434 1435 1434 1434 1436 1438 1438 1441 1442 1444 1448 1451 1454 1454 1455 1458 1461
1365 1367 1373 1374 1379 1380 1388 1388 1391 1394 1398 1400 1405 1410 1413 1416 1419 1420 1420 1420 1421 1423 1424 1427 1430 1431 1433 1435 1438 1438 1436 1435 1437 1439 1440 1442 1444 1448 1450 1453 1454 1454 1457
Wind_Speed
51 48 46 43 41 42 41 38 34 31 32 30 29 27 23 22 27 25 23 20 24 25 23 22 22 20 23 25 24 23 24 23 28 27 25 19 20 21 21 21 19 18 18
47 47 47 43 42 43 43 42 38 35 34 34 31 32 31 27 24 27 25 22 24 28 30 28 27 24 25 26 28 27 28 26 26 27 24 26 26 24 23 24 23 21 20
48 46 44 44 43 42 42 42 41 39 37 36 36 34 31 30 25 25 25 24 22 25 30 33 32 30 30 29 30 32 32 31 30 30 30 27 27 28 29 30 29 27 23
48 45 42 41 41 40 38 38 39 39 39 38 37 41 37 34 33 32 29 27 27 26 26 30 33 35 34 32 32 32 33 35 36 36 35 33 34 32 31 32 33 32 29
48 45 41 38 39 38 38 37 36 37 38 38 38 39 41 44 42 39 37 36 34 32 31 31 32 34 35 35 36 36 36 36 38 40 41 40 41 41 40 39 38 34 33
50 46 42 41 39 40 39 39 37 37 36 37 37 39 41 43 44 43 41 40 39 39 38 37 36 36 37 36 37 38 39 39 40 41 43 47 48 47 47 45 42 39 40
47 44 44 43 43 41 39 39 39 37 36 37 37 39 41 42 43 42 42 42 43 43 43 41 41 41 40 41 40 41 41 41 40 40 43 47 47 48 47 49 50 48 44
47 44 41 41 40 38 37 36 34 35 36 36 35 36 37 38 38 39 39 41 43 44 44 44 45 45 44 44 44 45 44 44 44 43 44 46 46 44 47 47 43 43 45
45 45 42 41 40 39 39 37 34 34 34 33 34 35 37 37 35 35 35 38 41 44 44 45 47 48 47 45 45 47 48 50 45 45 45 46 47 48 49 48 47 43 48
43 44 43 42 42 42 39 39 36 37 37 36 36 36 35 36 35 35 34 36 41 43 44 46 47 48 48 47 46 46 50 49 47 46 46 47 47 48 55 55 53 48 50
42 44 45 44 41 38 40 41 42 42 41 41 39 38 38 37 35 35 34 36 39 40 44 45 45 45 44 43 41 40 42 38 38 42 47 49 48 47 47 49 55 54 47
13 36 40 41 39 37 37 38 39 40 41 42 41 41 40 38 37 36 35 35 33 36 39 39 38 38 36 35 34 33 31 30 34 40 46 48 50 50 52 50 48 52 53
5 8 18 22 27 31 32 32 34 36 39 41 42 42 41 39 38 37 34 32 31 33 34 33 32 32 32 34 33 33 31 31 35 36 38 41 44 45 45 46 43 45 45
7 11 13 17 22 25 29 32 32 34 36 39 41 42 40 38 38 35 31 29 28 28 27 27 28 27 30 32 33 33 35 36 37 37 36 35 36 32 37 32 25 14 25
9 12 14 18 20 23 28 31 33 32 35 36 37 38 38 37 36 31 27 25 23 20 19 23 26 27 29 28 29 29 31 32 33 31 28 29 23 23 20 11 13 18 19
12 15 18 20 23 26 27 33 34 34 35 35 33 32 31 28 22 20 20 18 14 15 21 21 21 21 23 25 27 28 28 31 29 26 22 18 12 2 14 10 12 16 20
18 22 23 22 22 25 26 32 35 34 35 34 29 27 31 24 23 20 18 19 20 21 25 25 25 25 24 22 21 25 27 21 11 5 2 4 6 9 11 9 12 17 20
22 21 24 24 21 23 27 30 31 31 30 29 30 27 26 24 25 24 21 19 18 18 18 19 20 20 21 20 19 16 10 6 5 6 5 5 7 9 9 10 14 17 20
20 23 21 24 24 26 29 32 31 28 28 28 26 26 25 26 23 22 19 17 15 16 18 19 18 15 14 13 10 9 8 10 11 10 8 8 11 9 11 14 17 19 17
20 21 24 21 23 26 30 33 31 31 30 27 24 22 24 24 25 24 23 20 18 18 17 14 12 11 10 9 9 11 12 11 8 8 10 10 11 12 14 18 14 16 22
20 20 25 25 22 25 33 33 32 32 31 26 21 19 19 19 19 18 16 14 13 12 12 11 9 8 7 7 6 7 6 4 5 8 11 14 12 12 15 17 15 20 20
17 17 22 23 21 23 27 32 34 30 28 24 20 18 16 13 11 11 11 11 11 11 9 8 6 5 5 4 6 7 8 6 8 11 10 9 9 11 12 16 21 23 22
20 20 22 21 20 22 24 26 26 23 21 17 13 13 12 10 8 9 10 10 10 10 9 8 7 8 5 5 6 8 8 7 7 13 16 13 15 17 15 17 18 19 21
24 25 26 27 30 33 33 27 25 24 19 16 15 13 12 11 9 9 12 11 9 8 7 6 4 5 5 5 5 7 8 7 5 7 12 12 20 19 17 15 16 18 19
28 34 31 33 27 32 34 33 27 23 21 20 20 18 16 13 12 13 14 13 12 11 8 9 9 8 8 8 8 8 8 7 6 8 9 12 15 15 17 17 18 18 21
37 37 36 34 34 29 26 25 24 22 19 19 18 16 15 13 11 11 12 12 11 12 12 12 12 12 11 8 7 8 8 8 8 8 7 14 16 16 18 20 20 20 20
Wind_Direction
224 226 227 229 231 233 234 232 228 225 223 227 229 234 235 246 241 237 239 245 242 238 232 231 230 226 226 228 234 238 242 247 250 253 257 258 254 252 253 257 259 261 267
224 226 228 229 229 231 233 235 234 230 226 227 232 236 241 243 236 236 240 245 247 242 239 236 235 235 235 235 236 241 246 248 254 261 259 253 254 256 255 257 259 263 267
223 224 228 230 232 232 233 236 237 236 232 230 230 233 236 236 233 233 240 247 252 251 247 246 247 245 245 244 244 248 251 253 256 260 261 261 257 253 250 249 249 255 265
224 225 227 230 232 235 235 235 238 239 238 235 232 233 235 238 242 243 245 247 251 254 256 255 254 254 255 254 253 255 257 258 258 258 261 260 259 258 253 249 250 251 257
224 225 226 227 231 235 238 239 237 239 241 240 238 236 236 238 242 245 249 251 253 256 258 260 262 262 263 262 263 263 263 264 264 262 260 260 259 258 254 254 252 255 257
224 226 228 229 231 233 236 240 242 242 241 241 239 239 240 240 242 246 249 252 256 258 260 261 263 265 266 268 267 268 269 268 267 267 267 264 263 261 262 259 259 251 252
225 228 230 232 234 236 238 240 241 243 244 243 243 243 243 245 247 250 252 254 258 260 262 264 265 265 267 268 270 271 270 270 268 269 269 268 270 270 269 262 259 255 256
226 228 231 234 236 237 238 240 242 243 246 248 246 246 248 248 250 251 254 257 259 261 263 266 267 269 270 273 276 277 275 273 271 270 270 275 275 277 274 272 270 262 251
227 229 233 236 238 239 240 242 244 244 247 250 254 254 253 255 256 257 255 256 259 260 263 266 269 272 274 275 277 280 282 283 284 283 281 280 280 279 275 271 261 247 239
234 238 237 239 243 243 245 247 249 249 251 254 256 260 263 263 262 261 260 260 261 264 267 268 270 273 276 276 276 280 283 284 289 290 287 287 287 283 272 271 265 244 233
237 240 244 244 246 253 255 253 251 251 253 254 257 260 262 264 266 267 265 261 262 265 268 271 275 279 280 279 279 280 283 294 290 289 290 290 289 286 283 283 268 251 239
238 244 247 248 250 251 253 255 254 252 252 254 255 259 262 264 266 267 266 265 267 267 269 274 278 279 281 281 283 284 288 285 281 283 283 287 290 290 293 294 291 268 242
234 227 235 240 244 250 254 254 253 253 252 253 254 257 261 264 266 267 270 270 269 268 271 274 278 280 280 278 280 281 280 275 285 282 283 291 293 297 302 298 270 246 205
273 269 263 249 244 247 250 252 254 253 251 251 255 256 260 264 266 267 269 271 270 265 265 267 267 267 271 274 277 280 281 284 288 290 290 290 291 304 299 280 245 210 205
270 271 273 272 264 250 246 249 251 254 256 256 256 259 262 266 270 276 274 269 265 264 263 258 262 262 265 271 274 278 280 281 286 290 293 295 295 299 289 183 177 190 213
290 283 279 274 273 263 251 245 246 250 254 254 257 260 265 270 274 274 264 263 252 241 251 251 254 258 263 268 270 275 282 288 293 294 289 295 314 176 173 222 213 201 189
299 278 273 270 268 259 252 246 243 247 252 253 251 255 258 265 261 263 261 260 255 249 245 250 255 260 263 266 274 280 287 295 293 285 270 252 204 222 238 201 184 196 182
300 293 271 264 260 261 255 253 252 249 251 255 250 244 248 254 256 257 259 259 249 243 239 242 245 252 266 273 278 277 273 273 281 274 239 199 223 240 215 195 188 183 183
301 302 291 269 255 255 253 252 251 246 245 248 250 244 241 242 242 244 237 235 245 249 248 250 255 262 264 260 254 250 263 273 275 267 234 210 216 217 199 190 185 183 189
284 292 289 280 258 251 246 246 244 239 235 239 242 244 238 228 223 226 233 239 242 241 242 243 248 246 248 252 256 266 278 278 272 224 194 197 209 225 208 186 191 204 193
269 277 279 276 269 254 243 243 238 234 226 228 229 225 221 223 223 224 226 228 226 224 227 229 233 236 249 256 256 258 225 214 218 197 188 182 192 207 216 216 212 187 187
253 260 255 260 253 249 236 235 226 220 211 206 202 207 219 217 218 217 216 211 213 218 216 211 213 199 177 207 212 199 201 222 217 216 202 185 193 190 184 177 179 185 190
235 236 239 213 212 207 196 188 176 175 172 172 179 198 201 213 228 225 209 196 190 187 190 190 188 187 212 255 225 220 220 203 217 223 215 223 207 183 178 182 185 191 203
222 215 207 184 169 165 170 161 157 160 161 162 158 158 153 143 127 152 173 162 154 158 164 166 177 201 199 179 171 173 171 164 151 162 183 202 189 191 195 197 206 213 215
210 198 177 176 169 152 147 150 151 148 149 150 147 156 164 165 161 157 159 167 176 177 173 166 154 161 180 193 198 200 194 190 192 191 193 202 206 214 216 219 227 231 239
170 169 164 156 156 152 154 149 147 143 147 155 161 169 174 177 177 182 181 175 171 171 171 176 180 191 196 198 209 222 219 208 203 207 224 219 219 218 232 238 237 236 238